| time (UTC) | temp F | wind direction | speed MPH | gust MPH | rain 1hr in | rain 24hr in | rain mn in | humidity % | barometer mb |
| 20260904204821 | 74 | 295 | 1.0 | 2.0 | 0.00 | 0.00 | 0.00 | 59 | 1018.9 |
| 20260904204316 | 75 | 295 | 0.0 | 0.0 | 0.00 | 0.00 | 0.00 | 65 | 1019.1 |
| 20260904203812 | 75 | 295 | 0.0 | 1.0 | 0.00 | 0.00 | 0.00 | 59 | 1018.9 |
| 20260904203308 | 76 | 295 | 1.0 | 1.0 | 0.00 | 0.00 | 0.00 | 62 | 1018.9 |
| 20260904202804 | 76 | 295 | 2.0 | 3.0 | 0.00 | 0.00 | 0.00 | 59 | 1019.1 |
| 20260904202300 | 77 | 295 | 0.0 | 1.0 | 0.00 | 0.00 | 0.00 | 61 | 1018.8 |
| 20260904201756 | 77 | 295 | 0.0 | 2.0 | 0.00 | 0.00 | 0.00 | 57 | 1019.0 |
| 20260904201255 | 77 | 295 | 0.0 | 2.0 | 0.00 | 0.00 | 0.00 | 59 | 1018.7 |
| 20260904200750 | 77 | 295 | 1.0 | 3.0 | 0.00 | 0.00 | 0.00 | 55 | 1018.6 |
| 20260904200244 | 77 | 295 | 0.0 | 2.0 | 0.00 | 0.00 | 0.00 | 56 | 1018.9 |
| 20260904195743 | 77 | 295 | 0.0 | 1.0 | 0.00 | 0.00 | 0.00 | 60 | 1019.0 |
| 20260904195242 | 76 | 295 | 0.0 | 1.0 | 0.00 | 0.00 | 0.00 | 59 | 1018.9 |
| 20260904194737 | 74 | 295 | 1.0 | 2.0 | 0.00 | 0.00 | 0.00 | 60 | 1019.0 |
| 20260904194236 | 73 | 295 | 0.0 | 0.0 | 0.00 | 0.00 | 0.00 | 66 | 1019.0 |
| 20260904193732 | 75 | 295 | 0.0 | 0.0 | 0.00 | 0.00 | 0.00 | 62 | 1018.7 |
| 20260904193228 | 75 | 250 | 0.0 | 0.0 | 0.00 | 0.00 | 0.00 | 65 | 1018.9 |
| 20260904192723 | 75 | 250 | 0.0 | 1.0 | 0.00 | 0.00 | 0.00 | 67 | 1018.8 |
| 20260904192218 | 73 | 250 | 0.0 | 0.0 | 0.00 | 0.00 | 0.00 | 73 | 1019.0 |
| 20260904191715 | 73 | 250 | 0.0 | 0.0 | 0.00 | 0.00 | 0.00 | 77 | 1019.0 |
| 20260904191211 | 73 | 250 | 0.0 | 0.0 | 0.00 | 0.00 | 0.00 | 77 | 1019.1 |
| 20260904190707 | 73 | 250 | 0.0 | 0.0 | 0.00 | 0.00 | 0.00 | 77 | 1019.0 |
| 20260904190203 | 73 | 250 | 0.0 | 0.0 | 0.00 | 0.00 | 0.00 | 75 | 1019.2 |
| 20260904185659 | 73 | 250 | 0.0 | 0.0 | 0.00 | 0.00 | 0.00 | 72 | 1019.4 |
| 20260904185153 | 73 | 250 | 0.0 | 0.0 | 0.00 | 0.00 | 0.00 | 72 | 1019.4 |
| 20260904184652 | 74 | 250 | 0.0 | 1.0 | 0.00 | 0.00 | 0.00 | 70 | 1019.3 |
| 20260904184148 | 75 | 150 | 0.0 | 0.0 | 0.00 | 0.00 | 0.00 | 69 | 1019.2 |
| 20260904183643 | 76 | 150 | 0.0 | 1.0 | 0.00 | 0.00 | 0.00 | 71 | 1019.1 |
| 20260904183137 | 75 | 150 | 0.0 | 0.0 | 0.00 | 0.00 | 0.00 | 73 | 1019.1 |
| 20260904182633 | 75 | 150 | 0.0 | 0.0 | 0.00 | 0.00 | 0.00 | 71 | 1019.0 |
| 20260904182128 | 76 | 150 | 0.0 | 0.0 | 0.00 | 0.00 | 0.00 | 73 | 1018.8 |
| 20260904181623 | 76 | 150 | 0.0 | 1.0 | 0.00 | 0.00 | 0.00 | 70 | 1019.1 |
| 20260904181118 | 75 | 150 | 0.0 | 0.0 | 0.00 | 0.00 | 0.00 | 71 | 1018.7 |
| 20260904180613 | 75 | 150 | 0.0 | 0.0 | 0.00 | 0.00 | 0.00 | 73 | 1019.2 |
| 20260904180108 | 75 | 150 | 0.0 | 3.0 | 0.00 | 0.00 | 0.00 | 67 | 1019.1 |
| 20260904175602 | 75 | 150 | 0.0 | 0.0 | 0.00 | 0.00 | 0.00 | 69 | 1019.2 |
| 20260904175100 | 74 | 150 | 0.0 | 3.0 | 0.00 | 0.00 | 0.00 | 71 | 1019.1 |
| 20260904174555 | 74 | 150 | 0.0 | 0.0 | 0.00 | 0.00 | 0.00 | 81 | 1019.0 |
| 20260904174052 | 74 | 150 | 0.0 | 1.0 | 0.00 | 0.00 | 0.00 | 80 | 1019.1 |
| 20260904173551 | 74 | 150 | 0.0 | 0.0 | 0.00 | 0.00 | 0.00 | 73 | 1019.1 |
| 20260904173047 | 74 | 150 | 0.0 | 0.0 | 0.00 | 0.00 | 0.00 | 76 | 1019.1 |
| 20260904172543 | 75 | 150 | 0.0 | 0.0 | 0.00 | 0.00 | 0.00 | 75 | 1019.3 |
| 20260904172042 | 75 | 150 | 0.0 | 0.0 | 0.00 | 0.00 | 0.00 | 79 | 1019.2 |
| 20260904171537 | 74 | 150 | 0.0 | 0.0 | 0.00 | 0.00 | 0.00 | 76 | 1019.2 |
| 20260904171033 | 74 | 150 | 0.0 | 0.0 | 0.00 | 0.00 | 0.00 | 76 | 1019.5 |
| 20260904170528 | 74 | 150 | 0.0 | 1.0 | 0.00 | 0.00 | 0.00 | 78 | 1019.6 |
| 20260904170025 | 72 | 150 | 0.0 | 0.0 | 0.00 | 0.00 | 0.00 | 81 | 1019.5 |
| 20260904165523 | 73 | 150 | 0.0 | 0.0 | 0.00 | 0.00 | 0.00 | 84 | 1019.6 |
| 20260904165023 | 74 | 150 | 0.0 | 0.0 | 0.00 | 0.00 | 0.00 | 79 | 1019.7 |
| 20260904164518 | 74 | 150 | 0.0 | 0.0 | 0.00 | 0.00 | 0.00 | 81 | 1019.7 |
| 20260904164014 | 73 | 150 | 0.0 | 0.0 | 0.00 | 0.00 | 0.00 | 82 | 1019.6 |
| 20260904163513 | 73 | 150 | 0.0 | 0.0 | 0.00 | 0.00 | 0.00 | 82 | 1019.6 |
| 20260904163008 | 73 | 150 | 0.0 | 0.0 | 0.00 | 0.00 | 0.00 | 81 | 1019.8 |
| 20260904162503 | 72 | 150 | 0.0 | 0.0 | 0.00 | 0.00 | 0.00 | 83 | 1019.8 |
| 20260904161958 | 72 | 150 | 0.0 | 0.0 | 0.00 | 0.00 | 0.00 | 82 | 1019.8 |
| 20260904161453 | 72 | 150 | 0.0 | 0.0 | 0.00 | 0.00 | 0.00 | 82 | 1019.9 |
| 20260904160949 | 73 | 150 | 0.0 | 0.0 | 0.00 | 0.00 | 0.00 | 82 | 1019.9 |
| 20260904160443 | 73 | 150 | 0.0 | 0.0 | 0.00 | 0.00 | 0.00 | 82 | 1019.8 |
| 20260904155938 | 73 | 150 | 0.0 | 0.0 | 0.00 | 0.00 | 0.00 | 79 | 1020.1 |
| 20260904155433 | 72 | 150 | 0.0 | 0.0 | 0.00 | 0.00 | 0.00 | 81 | 1020.0 |
| 20260904154932 | 71 | 150 | 0.0 | 0.0 | 0.00 | 0.00 | 0.00 | 82 | 1020.0 |
| 20260904154427 | 73 | 150 | 0.0 | 1.0 | 0.00 | 0.00 | 0.00 | 82 | 1020.1 |
| 20260904153922 | 74 | 150 | 0.0 | 1.0 | 0.00 | 0.00 | 0.00 | 79 | 1020.1 |
| 20260904153417 | 72 | 150 | 0.0 | 0.0 | 0.00 | 0.00 | 0.00 | 79 | 1020.3 |
| 20260904152913 | 73 | 150 | 0.0 | 0.0 | 0.00 | 0.00 | 0.00 | 78 | 1020.3 |
| 20260904152408 | 71 | 150 | 0.0 | 1.0 | 0.00 | 0.00 | 0.00 | 78 | 1020.4 |
| 20260904151907 | 72 | 150 | 0.0 | 1.0 | 0.00 | 0.00 | 0.00 | 79 | 1020.4 |
| 20260904151402 | 72 | 150 | 0.0 | 0.0 | 0.00 | 0.00 | 0.00 | 81 | 1020.3 |
| 20260904150858 | 69 | 150 | 0.0 | 1.0 | 0.00 | 0.00 | 0.00 | 82 | 1020.3 |
| 20260904150353 | 71 | 150 | 0.0 | 0.0 | 0.00 | 0.00 | 0.00 | 82 | 1020.5 |
| 20260904145850 | 69 | 150 | 0.0 | 0.0 | 0.00 | 0.00 | 0.00 | 84 | 1020.3 |
| 20260904145347 | 68 | 150 | 0.0 | 0.0 | 0.00 | 0.00 | 0.00 | 89 | 1020.5 |
| 20260904144842 | 66 | 150 | 0.0 | 0.0 | 0.00 | 0.00 | 0.00 | 90 | 1020.5 |
| 20260904144338 | 67 | 150 | 0.0 | 0.0 | 0.00 | 0.00 | 0.00 | 90 | 1020.6 |
| 20260904143833 | 65 | 150 | 0.0 | 0.0 | 0.00 | 0.00 | 0.00 | 92 | 1020.6 |
| 20260904143330 | 66 | 150 | 0.0 | 0.0 | 0.00 | 0.00 | 0.00 | 93 | 1020.8 |
| 20260904142826 | 66 | 150 | 0.0 | 0.0 | 0.00 | 0.00 | 0.00 | 94 | 1020.6 |
| 20260904142321 | 66 | 150 | 0.0 | 0.0 | 0.00 | 0.00 | 0.00 | 94 | 1020.6 |
| 20260904141816 | 63 | 150 | 0.0 | 0.0 | 0.00 | 0.00 | 0.00 | 94 | 1020.6 |
| 20260904141311 | 64 | 150 | 0.0 | 0.0 | 0.00 | 0.00 | 0.00 | 94 | 1020.8 |
| 20260904140808 | 64 | 150 | 0.0 | 0.0 | 0.00 | 0.00 | 0.00 | 94 | 1020.9 |
| 20260904140302 | 64 | 150 | 0.0 | 0.0 | 0.00 | 0.00 | 0.00 | 94 | 1020.7 |
| 20260904135801 | 64 | 150 | 0.0 | 0.0 | 0.00 | 0.00 | 0.00 | 94 | 1020.8 |
| 20260904135256 | 64 | 150 | 0.0 | 0.0 | 0.00 | 0.00 | 0.00 | 94 | 1020.7 |
| 20260904134752 | 64 | 150 | 0.0 | 0.0 | 0.00 | 0.00 | 0.00 | 94 | 1020.4 |
| 20260904134252 | 64 | 150 | 0.0 | 0.0 | 0.00 | 0.00 | 0.00 | 94 | 1020.7 |
| 20260904133747 | 64 | 150 | 0.0 | 0.0 | 0.00 | 0.00 | 0.00 | 94 | 1020.5 |
| 20260904133243 | 64 | 150 | 0.0 | 0.0 | 0.00 | 0.00 | 0.00 | 94 | 1020.6 |
| 20260904132742 | 64 | 150 | 0.0 | 0.0 | 0.00 | 0.00 | 0.00 | 94 | 1020.6 |
| 20260904132238 | 64 | 150 | 0.0 | 0.0 | 0.00 | 0.00 | 0.00 | 94 | 1020.6 |
| 20260904131736 | 64 | 150 | 0.0 | 0.0 | 0.00 | 0.00 | 0.00 | 94 | 1020.6 |
| 20260904131232 | 64 | 150 | 0.0 | 0.0 | 0.00 | 0.00 | 0.00 | 94 | 1020.7 |
| 20260904130727 | 63 | 150 | 0.0 | 0.0 | 0.00 | 0.00 | 0.00 | 94 | 1020.7 |
| 20260904130226 | 63 | 150 | 0.0 | 1.0 | 0.00 | 0.00 | 0.00 | 94 | 1020.8 |
| 20260904125722 | 62 | 150 | 0.0 | 1.0 | 0.00 | 0.00 | 0.00 | 94 | 1020.5 |
| 20260904125217 | 62 | 150 | 0.0 | 0.0 | 0.00 | 0.00 | 0.00 | 94 | 1020.7 |
| 20260904124712 | 62 | 150 | 0.0 | 0.0 | 0.00 | 0.00 | 0.00 | 94 | 1020.7 |
| 20260904124208 | 62 | 150 | 0.0 | 0.0 | 0.00 | 0.00 | 0.00 | 94 | 1020.8 |
| 20260904123702 | 62 | 150 | 0.0 | 1.0 | 0.00 | 0.00 | 0.00 | 94 | 1020.6 |
| 20260904123158 | 62 | 150 | 0.0 | 0.0 | 0.00 | 0.00 | 0.00 | 94 | 1020.8 |
| 20260904122653 | 61 | 150 | 0.0 | 0.0 | 0.00 | 0.00 | 0.00 | 94 | 1020.7 |
| 20260904122147 | 62 | 150 | 0.0 | 1.0 | 0.00 | 0.00 | 0.00 | 94 | 1020.8 |
| 20260904121642 | 62 | 150 | 0.0 | 0.0 | 0.00 | 0.00 | 0.00 | 94 | 1020.8 |
| 20260904121138 | 62 | 150 | 0.0 | 1.0 | 0.00 | 0.00 | 0.00 | 94 | 1020.6 |
| 20260904120635 | 62 | 150 | 0.0 | 0.0 | 0.00 | 0.00 | 0.00 | 94 | 1020.5 |
| 20260904120131 | 62 | 150 | 0.0 | 0.0 | 0.00 | 0.00 | 0.00 | 94 | 1020.7 |
| 20260904115631 | 61 | 150 | 0.0 | 0.0 | 0.00 | 0.00 | 0.00 | 94 | 1020.6 |
| 20260904115126 | 61 | 150 | 0.0 | 0.0 | 0.00 | 0.00 | 0.00 | 94 | 1020.6 |
| 20260904114620 | 61 | 150 | 0.0 | 0.0 | 0.00 | 0.00 | 0.00 | 94 | 1020.9 |
| 20260904114114 | 60 | 150 | 0.0 | 1.0 | 0.00 | 0.00 | 0.00 | 94 | 1020.7 |
| 20260904113609 | 61 | 150 | 0.0 | 0.0 | 0.00 | 0.00 | 0.00 | 94 | 1020.7 |
| 20260904113108 | 61 | 150 | 0.0 | 0.0 | 0.00 | 0.00 | 0.00 | 94 | 1020.6 |
| 20260904112603 | 61 | 150 | 0.0 | 0.0 | 0.00 | 0.00 | 0.00 | 94 | 1020.5 |
| 20260904112100 | 61 | 150 | 0.0 | 0.0 | 0.00 | 0.00 | 0.00 | 94 | 1020.7 |
| 20260904111554 | 61 | 150 | 0.0 | 0.0 | 0.00 | 0.00 | 0.00 | 94 | 1020.5 |
| 20260904111050 | 61 | 150 | 0.0 | 0.0 | 0.00 | 0.00 | 0.00 | 94 | 1020.8 |
| 20260904110544 | 60 | 150 | 0.0 | 0.0 | 0.00 | 0.00 | 0.00 | 94 | 1020.6 |
| 20260904110040 | 60 | 150 | 0.0 | 0.0 | 0.00 | 0.00 | 0.00 | 94 | 1020.4 |
| 20260904105539 | 60 | 150 | 0.0 | 0.0 | 0.00 | 0.00 | 0.00 | 94 | 1020.6 |
| 20260904105034 | 61 | 150 | 0.0 | 0.0 | 0.00 | 0.00 | 0.00 | 94 | 1020.4 |
| 20260904104530 | 61 | 150 | 0.0 | 0.0 | 0.00 | 0.00 | 0.00 | 94 | 1020.5 |
| 20260904104026 | 61 | 150 | 0.0 | 0.0 | 0.00 | 0.00 | 0.00 | 94 | 1020.4 |
| 20260904103521 | 61 | 150 | 0.0 | 0.0 | 0.00 | 0.00 | 0.00 | 94 | 1020.6 |
| 20260904103017 | 61 | 150 | 0.0 | 0.0 | 0.00 | 0.00 | 0.00 | 94 | 1020.6 |
| 20260904102513 | 61 | 150 | 0.0 | 0.0 | 0.00 | 0.00 | 0.00 | 94 | 1020.4 |
| 20260904102008 | 61 | 150 | 0.0 | 0.0 | 0.00 | 0.00 | 0.00 | 94 | 1020.3 |
| 20260904101505 | 61 | 150 | 0.0 | 0.0 | 0.00 | 0.00 | 0.00 | 94 | 1020.1 |
| 20260904101000 | 61 | 150 | 0.0 | 0.0 | 0.00 | 0.00 | 0.00 | 94 | 1020.2 |
| 20260904100456 | 61 | 150 | 0.0 | 0.0 | 0.00 | 0.00 | 0.00 | 94 | 1020.4 |
| 20260904095955 | 61 | 150 | 0.0 | 0.0 | 0.00 | 0.00 | 0.00 | 94 | 1020.3 |
| 20260904095450 | 61 | 150 | 0.0 | 0.0 | 0.00 | 0.00 | 0.00 | 94 | 1020.4 |
| 20260904094945 | 61 | 150 | 0.0 | 0.0 | 0.00 | 0.00 | 0.00 | 94 | 1020.3 |
| 20260904094440 | 61 | 150 | 0.0 | 0.0 | 0.00 | 0.00 | 0.00 | 94 | 1020.3 |
| 20260904093936 | 61 | 150 | 0.0 | 0.0 | 0.00 | 0.00 | 0.00 | 94 | 1020.5 |
| 20260904093432 | 62 | 150 | 0.0 | 0.0 | 0.00 | 0.00 | 0.00 | 94 | 1020.3 |
| 20260904092927 | 62 | 150 | 0.0 | 0.0 | 0.00 | 0.00 | 0.00 | 94 | 1020.1 |
| 20260904092424 | 62 | 150 | 0.0 | 0.0 | 0.00 | 0.00 | 0.00 | 94 | 1020.2 |
| 20260904091919 | 62 | 150 | 0.0 | 0.0 | 0.00 | 0.00 | 0.00 | 94 | 1020.5 |
| 20260904091414 | 62 | 150 | 0.0 | 0.0 | 0.00 | 0.00 | 0.00 | 94 | 1020.1 |
| 20260904090903 | 62 | 150 | 0.0 | 0.0 | 0.00 | 0.00 | 0.00 | 94 | 1020.1 |
| 20260904090359 | 62 | 150 | 0.0 | 0.0 | 0.00 | 0.00 | 0.00 | 94 | 1020.2 |
| 20260904085854 | 62 | 150 | 0.0 | 0.0 | 0.00 | 0.00 | 0.00 | 94 | 1020.0 |
| 20260904085350 | 62 | 150 | 0.0 | 0.0 | 0.00 | 0.00 | 0.00 | 94 | 1019.9 |
| 20260904084850 | 62 | 150 | 0.0 | 0.0 | 0.00 | 0.00 | 0.00 | 94 | 1020.2 |
| 20260904084346 | 62 | 150 | 0.0 | 0.0 | 0.00 | 0.00 | 0.00 | 94 | 1020.4 |
| 20260904083841 | 62 | 150 | 0.0 | 0.0 | 0.00 | 0.00 | 0.00 | 94 | 1020.2 |
| 20260904083338 | 62 | 150 | 0.0 | 0.0 | 0.00 | 0.00 | 0.00 | 94 | 1020.0 |
| 20260904082833 | 62 | 150 | 0.0 | 0.0 | 0.00 | 0.00 | 0.00 | 94 | 1020.3 |
| 20260904082327 | 62 | 150 | 0.0 | 0.0 | 0.00 | 0.00 | 0.00 | 94 | 1020.1 |
| 20260904081823 | 62 | 150 | 0.0 | 0.0 | 0.00 | 0.00 | 0.00 | 94 | 1020.4 |
| 20260904081318 | 62 | 150 | 0.0 | 0.0 | 0.00 | 0.00 | 0.00 | 94 | 1020.4 |
| 20260904080814 | 62 | 150 | 0.0 | 0.0 | 0.00 | 0.00 | 0.00 | 94 | 1020.4 |
| 20260904080309 | 62 | 150 | 0.0 | 0.0 | 0.00 | 0.00 | 0.00 | 94 | 1020.4 |
| 20260904075806 | 62 | 150 | 0.0 | 0.0 | 0.00 | 0.00 | 0.00 | 94 | 1020.5 |
| 20260904075300 | 62 | 150 | 0.0 | 0.0 | 0.00 | 0.00 | 0.00 | 94 | 1020.4 |
| 20260904074759 | 62 | 150 | 0.0 | 0.0 | 0.00 | 0.00 | 0.00 | 94 | 1020.4 |
| 20260904074254 | 62 | 150 | 0.0 | 2.0 | 0.00 | 0.00 | 0.00 | 94 | 1020.2 |
| 20260904073750 | 62 | 150 | 0.0 | 0.0 | 0.00 | 0.00 | 0.00 | 94 | 1020.5 |
| 20260904073245 | 61 | 150 | 0.0 | 0.0 | 0.00 | 0.00 | 0.00 | 94 | 1020.6 |
| 20260904072742 | 61 | 150 | 0.0 | 0.0 | 0.00 | 0.00 | 0.00 | 94 | 1020.6 |
| 20260904072235 | 61 | 150 | 0.0 | 0.0 | 0.00 | 0.00 | 0.00 | 94 | 1020.6 |
| 20260904071732 | 61 | 150 | 0.0 | 0.0 | 0.00 | 0.00 | 0.00 | 94 | 1020.7 |
| 20260904071231 | 61 | 150 | 0.0 | 0.0 | 0.00 | 0.00 | 0.00 | 94 | 1021.0 |
| 20260904070726 | 61 | 150 | 0.0 | 0.0 | 0.00 | 0.00 | 0.00 | 94 | 1020.7 |
| 20260904070225 | 61 | 150 | 0.0 | 0.0 | 0.00 | 0.00 | 0.00 | 94 | 1020.6 |
| 20260904065720 | 61 | 150 | 0.0 | 0.0 | 0.00 | 0.00 | 0.00 | 94 | 1020.6 |
| 20260904065217 | 61 | 150 | 0.0 | 0.0 | 0.00 | 0.00 | 0.00 | 94 | 1020.7 |
| 20260904064716 | 61 | 150 | 0.0 | 0.0 | 0.00 | 0.00 | 0.00 | 94 | 1020.8 |
| 20260904064212 | 61 | 150 | 0.0 | 0.0 | 0.00 | 0.00 | 0.00 | 94 | 1020.9 |
| 20260904063708 | 61 | 150 | 0.0 | 0.0 | 0.00 | 0.00 | 0.00 | 94 | 1021.0 |
| 20260904063203 | 61 | 150 | 0.0 | 0.0 | 0.00 | 0.00 | 0.00 | 94 | 1020.7 |
| 20260904062700 | 61 | 150 | 0.0 | 0.0 | 0.00 | 0.00 | 0.00 | 94 | 1020.9 |
| 20260904062155 | 61 | 150 | 0.0 | 0.0 | 0.00 | 0.00 | 0.00 | 94 | 1021.1 |
| 20260904061650 | 61 | 150 | 0.0 | 0.0 | 0.00 | 0.00 | 0.00 | 94 | 1021.2 |
| 20260904061147 | 60 | 150 | 0.0 | 0.0 | 0.00 | 0.00 | 0.00 | 94 | 1021.2 |
| 20260904060643 | 60 | 150 | 0.0 | 0.0 | 0.00 | 0.00 | 0.00 | 94 | 1021.2 |
| 20260904060138 | 60 | 150 | 0.0 | 0.0 | 0.00 | 0.00 | 0.00 | 94 | 1021.0 |
| 20260904055633 | 60 | 150 | 0.0 | 0.0 | 0.00 | 0.00 | 0.00 | 94 | 1021.3 |
| 20260904055128 | 60 | 150 | 0.0 | 0.0 | 0.00 | 0.00 | 0.00 | 94 | 1021.4 |
| 20260904054623 | 60 | 150 | 0.0 | 0.0 | 0.00 | 0.00 | 0.00 | 94 | 1021.4 |
| 20260904054120 | 60 | 150 | 0.0 | 0.0 | 0.00 | 0.00 | 0.00 | 94 | 1021.6 |
| 20260904053614 | 60 | 150 | 0.0 | 0.0 | 0.00 | 0.00 | 0.00 | 94 | 1021.5 |
| 20260904053109 | 60 | 150 | 0.0 | 0.0 | 0.00 | 0.00 | 0.00 | 94 | 1021.7 |
| 20260904052606 | 60 | 150 | 0.0 | 0.0 | 0.00 | 0.00 | 0.00 | 94 | 1021.8 |
| 20260904052101 | 60 | 150 | 0.0 | 0.0 | 0.00 | 0.00 | 0.00 | 94 | 1021.8 |
| 20260904051557 | 60 | 150 | 0.0 | 0.0 | 0.00 | 0.00 | 0.00 | 94 | 1021.9 |
| 20260904051056 | 60 | 150 | 0.0 | 0.0 | 0.00 | 0.00 | 0.00 | 94 | 1021.9 |
| 20260904050553 | 60 | 150 | 0.0 | 0.0 | 0.00 | 0.00 | 0.00 | 94 | 1021.9 |
| 20260904050049 | 60 | 150 | 0.0 | 0.0 | 0.00 | 0.00 | 0.00 | 94 | 1021.9 |
| 20260904045543 | 60 | 150 | 0.0 | 0.0 | 0.00 | 0.00 | 0.00 | 94 | 1022.1 |
| 20260904045038 | 60 | 150 | 0.0 | 0.0 | 0.00 | 0.00 | 0.00 | 94 | 1022.1 |
| 20260904044534 | 60 | 150 | 0.0 | 0.0 | 0.00 | 0.00 | 0.00 | 94 | 1022.2 |
| 20260904044030 | 60 | 150 | 0.0 | 0.0 | 0.00 | 0.00 | 0.00 | 94 | 1021.9 |
| 20260904043526 | 60 | 150 | 0.0 | 0.0 | 0.00 | 0.00 | 0.00 | 94 | 1021.9 |
| 20260904043022 | 60 | 150 | 0.0 | 0.0 | 0.00 | 0.00 | 0.00 | 94 | 1021.9 |
| 20260904042518 | 60 | 150 | 0.0 | 0.0 | 0.00 | 0.00 | 0.00 | 94 | 1021.9 |
| 20260904042013 | 60 | 150 | 0.0 | 0.0 | 0.00 | 0.00 | 0.00 | 94 | 1022.1 |
| 20260904041509 | 60 | 150 | 0.0 | 0.0 | 0.00 | 0.00 | 0.00 | 94 | 1022.3 |
| 20260904041004 | 60 | 150 | 0.0 | 0.0 | 0.00 | 0.00 | 0.00 | 94 | 1022.1 |
| 20260904040459 | 60 | 150 | 0.0 | 0.0 | 0.00 | 0.00 | 0.00 | 94 | 1022.3 |
| 20260904035955 | 60 | 150 | 0.0 | 0.0 | 0.00 | 0.19 | 0.19 | 94 | 1022.3 |
| 20260904035451 | 60 | 150 | 0.0 | 0.0 | 0.00 | 0.19 | 0.19 | 94 | 1022.4 |
| 20260904034950 | 60 | 150 | 0.0 | 0.0 | 0.00 | 0.19 | 0.19 | 94 | 1022.6 |
| 20260904034445 | 60 | 150 | 0.0 | 0.0 | 0.00 | 0.19 | 0.19 | 94 | 1022.6 |
| 20260904033941 | 60 | 150 | 0.0 | 0.0 | 0.00 | 0.19 | 0.19 | 94 | 1022.5 |
| 20260904033437 | 60 | 150 | 0.0 | 0.0 | 0.00 | 0.19 | 0.19 | 94 | 1022.6 |
| 20260904032933 | 60 | 150 | 0.0 | 0.0 | 0.00 | 0.19 | 0.19 | 94 | 1022.7 |
| 20260904032428 | 60 | 150 | 0.0 | 0.0 | 0.00 | 0.19 | 0.19 | 94 | 1022.7 |
| 20260904031928 | 61 | 150 | 0.0 | 0.0 | 0.00 | 0.19 | 0.19 | 94 | 1022.4 |
| 20260904031423 | 61 | 150 | 0.0 | 0.0 | 0.00 | 0.19 | 0.19 | 94 | 1022.6 |
| 20260904030919 | 61 | 150 | 0.0 | 0.0 | 0.00 | 0.19 | 0.19 | 94 | 1022.4 |
| 20260904030419 | 61 | 150 | 0.0 | 0.0 | 0.00 | 0.19 | 0.19 | 94 | 1022.3 |
| 20260904025915 | 61 | 150 | 0.0 | 0.0 | 0.00 | 0.19 | 0.19 | 94 | 1022.4 |
| 20260904025411 | 61 | 150 | 0.0 | 0.0 | 0.00 | 0.19 | 0.19 | 94 | 1022.6 |
| 20260904024910 | 61 | 150 | 0.0 | 0.0 | 0.00 | 0.19 | 0.19 | 94 | 1022.8 |
| 20260904024406 | 61 | 150 | 0.0 | 0.0 | 0.00 | 0.19 | 0.19 | 94 | 1022.7 |
| 20260904023902 | 61 | 150 | 0.0 | 0.0 | 0.00 | 0.19 | 0.19 | 94 | 1022.7 |
| 20260904023358 | 61 | 150 | 0.0 | 0.0 | 0.00 | 0.19 | 0.19 | 94 | 1022.7 |
| 20260904022856 | 61 | 150 | 0.0 | 0.0 | 0.00 | 0.19 | 0.19 | 94 | 1022.7 |
| 20260904022348 | 61 | 150 | 0.0 | 0.0 | 0.00 | 0.19 | 0.19 | 94 | 1022.6 |
| 20260904021845 | 62 | 150 | 0.0 | 0.0 | 0.00 | 0.19 | 0.19 | 94 | 1022.7 |
| 20260904021345 | 62 | 150 | 0.0 | 0.0 | 0.00 | 0.19 | 0.19 | 94 | 1023.0 |
| 20260904020840 | 62 | 150 | 0.0 | 0.0 | 0.00 | 0.19 | 0.19 | 94 | 1023.1 |
| 20260904020335 | 62 | 150 | 0.0 | 0.0 | 0.00 | 0.19 | 0.19 | 94 | 1023.2 |
| 20260904015833 | 62 | 150 | 0.0 | 0.0 | 0.00 | 0.19 | 0.19 | 94 | 1023.2 |
| 20260904015329 | 62 | 150 | 0.0 | 0.0 | 0.00 | 0.19 | 0.19 | 94 | 1023.0 |
| 20260904014828 | 62 | 150 | 0.0 | 0.0 | 0.00 | 0.19 | 0.19 | 94 | 1023.4 |
| 20260904014323 | 62 | 150 | 0.0 | 0.0 | 0.00 | 0.19 | 0.19 | 94 | 1023.2 |
| 20260904013819 | 62 | 150 | 0.0 | 0.0 | 0.00 | 0.19 | 0.19 | 94 | 1023.1 |
| 20260904013315 | 62 | 150 | 0.0 | 0.0 | 0.00 | 0.19 | 0.19 | 94 | 1023.6 |
| 20260904012810 | 62 | 150 | 0.0 | 0.0 | 0.00 | 0.19 | 0.19 | 94 | 1023.5 |
| 20260904012306 | 62 | 150 | 0.0 | 0.0 | 0.00 | 0.19 | 0.19 | 94 | 1023.5 |
| 20260904011804 | 62 | 150 | 0.0 | 0.0 | 0.00 | 0.19 | 0.19 | 94 | 1023.4 |
| 20260904011259 | 62 | 150 | 0.0 | 0.0 | 0.00 | 0.19 | 0.19 | 94 | 1023.4 |
| 20260904010754 | 62 | 150 | 0.0 | 0.0 | 0.00 | 0.19 | 0.19 | 94 | 1023.4 |
| 20260904010250 | 62 | 150 | 0.0 | 0.0 | 0.00 | 0.19 | 0.19 | 94 | 1023.3 |
| 20260904005745 | 62 | 150 | 0.0 | 0.0 | 0.00 | 0.19 | 0.19 | 94 | 1023.5 |
| 20260904005241 | 62 | 150 | 0.0 | 0.0 | 0.00 | 0.19 | 0.19 | 94 | 1023.2 |
| 20260904004736 | 62 | 150 | 0.0 | 0.0 | 0.00 | 0.19 | 0.19 | 94 | 1023.2 |
| 20260904004232 | 62 | 150 | 0.0 | 0.0 | 0.00 | 0.19 | 0.19 | 94 | 1023.1 |
| 20260904003726 | 62 | 150 | 0.0 | 0.0 | 0.00 | 0.19 | 0.19 | 94 | 1023.3 |
| 20260904003222 | 62 | 150 | 0.0 | 0.0 | 0.00 | 0.19 | 0.19 | 94 | 1023.3 |
| 20260904002718 | 62 | 150 | 0.0 | 0.0 | 0.00 | 0.19 | 0.19 | 94 | 1023.1 |
| 20260904002214 | 62 | 150 | 0.0 | 0.0 | 0.00 | 0.19 | 0.19 | 94 | 1023.3 |
| 20260904001709 | 62 | 150 | 0.0 | 0.0 | 0.00 | 0.19 | 0.19 | 94 | 1023.3 |
| 20260904001208 | 63 | 150 | 0.0 | 0.0 | 0.00 | 0.19 | 0.19 | 94 | 1022.9 |
| 20260904000703 | 63 | 150 | 0.0 | 0.0 | 0.00 | 0.19 | 0.19 | 94 | 1023.1 |
| 20260904000158 | 63 | 150 | 0.0 | 0.0 | 0.00 | 0.19 | 0.19 | 94 | 1023.4 |
| 20260903235657 | 63 | 150 | 0.0 | 0.0 | 0.00 | 0.19 | 0.19 | 94 | 1023.1 |
| 20260903235154 | 63 | 150 | 0.0 | 0.0 | 0.00 | 0.19 | 0.19 | 94 | 1022.9 |
| 20260903234648 | 63 | 150 | 0.0 | 0.0 | 0.00 | 0.19 | 0.19 | 94 | 1022.9 |
| 20260903234144 | 63 | 150 | 0.0 | 0.0 | 0.00 | 0.19 | 0.19 | 94 | 1023.0 |
| 20260903233635 | 63 | 150 | 0.0 | 0.0 | 0.00 | 0.19 | 0.19 | 94 | 1023.1 |
| 20260903233131 | 63 | 150 | 0.0 | 0.0 | 0.00 | 0.19 | 0.19 | 94 | 1023.2 |
| 20260903232624 | 63 | 150 | 0.0 | 0.0 | 0.00 | 0.19 | 0.19 | 94 | 1022.9 |
| 20260903232121 | 63 | 150 | 0.0 | 0.0 | 0.00 | 0.19 | 0.19 | 94 | 1023.0 |
| 20260903231614 | 63 | 150 | 0.0 | 0.0 | 0.00 | 0.19 | 0.19 | 94 | 1023.0 |
| 20260903231108 | 63 | 150 | 0.0 | 0.0 | 0.00 | 0.19 | 0.19 | 94 | 1023.1 |
| 20260903230604 | 63 | 150 | 0.0 | 0.0 | 0.00 | 0.19 | 0.19 | 94 | 1023.1 |
| 20260903230104 | 63 | 150 | 0.0 | 0.0 | 0.00 | 0.19 | 0.19 | 94 | 1023.3 |
| 20260903225601 | 63 | 150 | 0.0 | 0.0 | 0.00 | 0.19 | 0.19 | 94 | 1023.1 |
| 20260903225057 | 63 | 150 | 0.0 | 0.0 | 0.00 | 0.19 | 0.19 | 94 | 1023.3 |
| 20260903224553 | 63 | 150 | 0.0 | 0.0 | 0.00 | 0.19 | 0.19 | 94 | 1023.4 |
| 20260903224049 | 63 | 150 | 0.0 | 0.0 | 0.00 | 0.19 | 0.19 | 94 | 1023.4 |
| 20260903223549 | 63 | 150 | 0.0 | 0.0 | 0.00 | 0.19 | 0.19 | 94 | 1023.5 |
| 20260903223047 | 63 | 150 | 0.0 | 0.0 | 0.00 | 0.19 | 0.19 | 94 | 1023.3 |
| 20260903222543 | 63 | 150 | 0.0 | 0.0 | 0.00 | 0.19 | 0.19 | 94 | 1023.4 |
| 20260903222041 | 63 | 150 | 0.0 | 0.0 | 0.00 | 0.19 | 0.19 | 94 | 1023.5 |
| 20260903221537 | 63 | 150 | 0.0 | 0.0 | 0.00 | 0.19 | 0.19 | 94 | 1023.3 |
| 20260903221035 | 63 | 150 | 0.0 | 0.0 | 0.00 | 0.19 | 0.19 | 94 | 1023.3 |
| 20260903220534 | 63 | 150 | 0.0 | 0.0 | 0.00 | 0.19 | 0.19 | 94 | 1023.3 |
| 20260903220028 | 64 | 150 | 0.0 | 0.0 | 0.00 | 0.19 | 0.19 | 94 | 1023.2 |
| 20260903215527 | 64 | 150 | 0.0 | 0.0 | 0.00 | 0.19 | 0.19 | 94 | 1023.3 |
| 20260903215027 | 64 | 150 | 0.0 | 0.0 | 0.00 | 0.19 | 0.19 | 94 | 1023.4 |
| 20260903214521 | 63 | 150 | 0.0 | 0.0 | 0.00 | 0.19 | 0.19 | 94 | 1023.5 |
| 20260903214016 | 63 | 150 | 0.0 | 0.0 | 0.00 | 0.19 | 0.19 | 94 | 1023.3 |
| 20260903213511 | 63 | 150 | 0.0 | 0.0 | 0.00 | 0.19 | 0.19 | 94 | 1023.2 |
| 20260903213007 | 63 | 150 | 0.0 | 0.0 | 0.00 | 0.19 | 0.19 | 94 | 1023.4 |
| 20260903212502 | 63 | 150 | 0.0 | 0.0 | 0.00 | 0.19 | 0.19 | 94 | 1023.2 |
| 20260903211957 | 64 | 150 | 0.0 | 0.0 | 0.00 | 0.19 | 0.19 | 94 | 1023.3 |
| 20260903211453 | 64 | 150 | 0.0 | 0.0 | 0.00 | 0.19 | 0.19 | 94 | 1023.4 |
| 20260903210949 | 63 | 150 | 0.0 | 0.0 | 0.00 | 0.19 | 0.19 | 94 | 1023.3 |
| 20260903210448 | 63 | 150 | 0.0 | 0.0 | 0.00 | 0.19 | 0.19 | 94 | 1023.4 |
| 20260903205944 | 64 | 150 | 0.0 | 0.0 | 0.00 | 0.19 | 0.19 | 94 | 1023.5 |
| 20260903205438 | 63 | 150 | 0.0 | 0.0 | 0.00 | 0.19 | 0.19 | 94 | 1023.3 |